Location: Newark
(45.5000°N, 11.4167°E)
Time: 16:56:06
(UTC+00:00)

A-11 Canister half - Pass Details

Date: 21 August 2019
Orbit: 1514 x 1686 km, 47.2° (Epoch: 18 October)

Event Time Altitude Azimuth Distance (km) Brightness Sun altitude
Rises 20:29:54 0° 274° (W) 4,736 12.3 -21.2°
Reaches altitude 10° 20:32:56 10° 275° (W) 3,773 11.7 -21.6°
Maximum altitude 20:42:36 81° 3° (N) 1,638 9.1 -22.8°
Enters shadow 20:50:47 18° 91° (E) 3,330 10.4 -23.7°
Drops below altitude 10° 20:52:39 10° 92° (E) 3,908 - -23.9°
Sets 20:55:51 0° 94° (E) 4,911 - -24.2°
